Regional Weather Roundup
Issued by NWS

Home | Current Version | Previous Version | Text Only | Print | Product List | Glossary On
Versions: 1 2 3 4 5 6 7 8 9 10 11 12 13 14 15 16 17 18 19 20 21 22 23 24 25 26 27 28 29 30 31 32 33 34 35 36 37 38 39 40 41 42 43 44 45 46 47 48 49 50
000
ASUS43 KDTX 071410
RWRMI
MICHIGAN HOURLY REGIONAL WEATHER ROUNDUP
NATIONAL WEATHER SERVICE DETROIT/PONTIAC MI
900 AM EST WED DEC 07 2016

NOTE: "FAIR" INDICATES FEW OR NO CLOUDS BELOW 12,000 FEET WITH NO
SIGNIFICANT WEATHER AND/OR OBSTRUCTION TO VISIBILITY.

MIZ047>049-052>055-059>063-066>070-074>076-081>083-071500-
SOUTHEAST LOWER MICHIGAN

CITY           SKY/WX    TMP DP  RH WIND       PRES   REMARKS
ADRIAN         CLEAR     28  23  81 W10       30.05S WCI  19
ALMA           CLOUDY    32  23  70 W12G17    29.95R WCI  23
ANN ARBOR      CLOUDY    30  23  75 SW13      30.02R WCI  20
BAD AXE        CLOUDY    32  23  70 SW13G22   29.91S WCI  22
CARO           CLOUDY    32  23  70 SW17G26   29.93R WCI  21
DETROIT CITY   CLOUDY    32  23  69 SW15G22   30.02R WCI  22
DETROIT        MOCLDY    32  24  72 SW17      30.04R WCI  21
FLINT          CLOUDY    32  22  66 W13G23    29.96R WCI  22
GROSSE ILE     PTCLDY    31  24  77 SW12G21   30.04R WCI  21
HILLSDALE      CLOUDY    27  21  80 SW8       30.00F WCI  18
HOWELL         CLOUDY    31  23  71 SW13      29.98R WCI  21

CITY           SKY/WX    TMP DP  RH WIND       PRES   REMARKS
JACKSON        CLOUDY    29  22  75 SW14      30.01R WCI  18
LAMBERTVILLE   CLEAR     30  23  73 W9        30.07R WCI  22
LANSING        CLOUDY    32  21  64 W15G23    29.98S WCI  22
LAPEER         NOT AVBL
MASON          CLOUDY    31  24  74 SW9       29.99R WCI  23
MONROE         PTCLDY    30  25  81 SW12G18   30.05R WCI  20
MT. CLEMENS    MOCLDY    33  24  68 SW12      29.98R WCI  24
PONTIAC        MOCLDY    31  22  69 SW15G24   29.97R WCI  20
PORT HOPE        N/A     32  23  69 SW9       29.87S WCI  24
PORT HURON     CLOUDY    32  23  69 SW6       29.98R WCI  26
TRI CITIES     CLOUDY    32  24  72 SW17G25   29.93R WCI  21
MIDLAND        CLOUDY    32  20  61 W16G25    29.92R WCI  22
TROY           CLOUDY    33  22  65 SW14G20   30.02R WCI  23
SAGINAW HB     CLOUDY    32  23  69 SW16G23   29.94R WCI  21
$$
MIZ043>046-050>051-056>058-064>065-071>073-077>080-071500-
SOUTHWEST LOWER MICHIGAN

CITY           SKY/WX    TMP DP  RH WIND       PRES   REMARKS
BATTLE CREEK   MOCLDY    30  24  78 SW10      30.01R WCI  21
BENTON HARBOR  MOCLDY    33  22  63 W21       30.05R WCI  21
BIG RAPIDS     CLOUDY    30  20  66 W17G23    29.91R WCI  18
COLDWATER      CLOUDY    28  22  78 SW9       30.02F WCI  19
FREMONT        CLOUDY    29  19  64 W12G21    29.95R WCI  20
HOLLAND        CLOUDY    32  25  75 W20G26    30.00R WCI  20
GRAND RAPIDS   CLOUDY    31  23  72 W15G22    29.98R WCI  20
IONIA          CLOUDY    31  24  74 W16       29.96R WCI  20
KALAMAZOO      CLOUDY    31  22  69 SW13      30.02R WCI  21
LUDINGTON      CLOUDY    28  21  75 W14G23    29.94R WCI  17
MARSHALL       PTCLDY    29  23  79 SW9       30.00R WCI  20
MOUNT PLEASANT MOCLDY    31  21  66 W13G24    29.92R WCI  21
MUSKEGON       CLOUDY    31  23  72 W17G24    29.99R WCI  19
SOUTH HAVEN    CLOUDY    32  24  72 W13G23    30.03R WCI  23
$$
MIZ016>042-071500-
NORTHERN LOWER MICHIGAN

CITY           SKY/WX    TMP DP  RH WIND       PRES   REMARKS
ALPENA         CLOUDY    31  19  61 SW14G21   29.82R WCI  21
BEAVER ISLAND  CLOUDY    29  22  74 SW20G35   29.77R WCI  17
BELLAIRE       CLOUDY    31  22  69 SW15G22   29.84R WCI  20
CADILLAC       CLOUDY    27  19  73 SW16G25   29.85R WCI  14
CHARLEVOIX     CLOUDY    31  22  71 SW17G30   29.83R WCI  19
FRANKFORT      CLOUDY    29  23  77 SW8G20    29.88R WCI  21
GAYLORD        CLOUDY    28  17  63 SW23G32   29.78R WCI  14
GRAYLING       CLOUDY    29  20  70 SW17G24   29.83R WCI  17
HARBOR SPRINGS CLOUDY    31  23  72 SW25G38   29.78R WCI  18
HOUGHTON LAKE  CLOUDY    29  19  66 W18G33    29.85R WCI  16
MANISTEE       FLURRIES  29  22  75 SW14G25   29.91R WCI  18
OSCODA         CLOUDY    32  20  62 MISG      29.85S
PELLSTON       FLURRIES  31  21  66 SW15G28   29.77R WCI  20
ROGERS CITY    CLOUDY    31  21  64 SW12      29.80R WCI  22
TRAVERSE CITY  FLURRIES  31  19  61 SW17G26   29.85R WCI  19
$$
MIZ007>008-015-071500-
EASTERN UPPER MICHIGAN

CITY           SKY/WX    TMP DP  RH WIND       PRES   REMARKS
MACKINAC ISLAN CLOUDY    31  23  72 W23G39    29.73R WCI  18
NEWBERRY       CLOUDY    25  16  70 SW17G23   29.72R WCI  11
MUNISING         N/A     25  14  63 SW10G24   29.73R WCI  15
$$
MIZ004>006-011>014-085-071500-
CENTRAL UPPER MICHIGAN

CITY           SKY/WX    TMP DP  RH WIND       PRES   REMARKS
MANISTIQUE     CLOUDY    24  12  59 W12G20    29.77R WCI  13
$$
MIZ001>003-009>011-084-071500-
WESTERN UPPER MICHIGAN

CITY           SKY/WX    TMP DP  RH WIND       PRES   REMARKS
COPPER HARBOR    N/A     24  19  81 W13G23    29.62R WCI  12
$$

ABBREVIATIONS USED IN REMARKS
   TC - TEMPERATURE IN CELSIUS
  WCI - WIND CHILL INDEX
   HX - HEAT INDEX
  VSB - VISIBILITY




USA.gov is the U.S. government's official web portal to all federal, state and local government web resources and services.